Time,TemperatureF,DewpointF,PressureIn,WindDirection,WindDirectionDegrees,WindSpeedMPH,WindSpeedGustMPH,Humidity,HourlyPrecipIn,Conditions,Clouds,dailyrainin,SolarRadiationWatts/m^2,SoftwareType,DateUTC
2013-01-18 00:02:00,36.0,31.0,30.21,NNW,336,0.0,0.0,83,0.00,,,0.00,0,weatherlink.com 1.10,2013-01-18 08:02:00,
2013-01-18 00:17:00,35.9,31.0,30.22,NNW,336,0.0,0.0,83,0.00,,,0.00,0,weatherlink.com 1.10,2013-01-18 08:17:00,
2013-01-18 00:32:00,35.7,31.0,30.21,NNW,336,0.0,0.0,82,0.00,,,0.00,0,weatherlink.com 1.10,2013-01-18 08:32:00,
2013-01-18 00:47:00,34.7,31.0,30.22,NNW,336,0.0,0.0,85,0.00,,,0.00,0,weatherlink.com 1.10,2013-01-18 08:47:00,
2013-01-18 01:02:00,35.6,31.0,30.21,NNW,336,0.0,0.0,84,0.00,,,0.00,0,weatherlink.com 1.10,2013-01-18 09:02:00,
2013-01-18 01:17:00,35.3,31.0,30.22,NNW,336,0.0,0.0,84,0.00,,,0.00,0,weatherlink.com 1.10,2013-01-18 09:17:00,
2013-01-18 01:32:00,34.7,31.0,30.22,NNW,336,0.0,0.0,86,0.00,,,0.00,0,weatherlink.com 1.10,2013-01-18 09:32:00,
2013-01-18 01:47:00,34.4,31.0,30.22,NNW,336,0.0,0.0,86,0.00,,,0.00,0,weatherlink.com 1.10,2013-01-18 09:47:00,
2013-01-18 02:02:00,34.1,30.0,30.22,NNW,336,0.0,0.0,85,0.00,,,0.00,0,weatherlink.com 1.10,2013-01-18 10:02:00,
2013-01-18 02:17:00,33.3,30.0,30.22,NNW,336,0.0,0.0,86,0.00,,,0.00,0,weatherlink.com 1.10,2013-01-18 10:17:00,
2013-01-18 02:33:00,32.7,30.0,30.23,NNW,336,0.0,1.0,88,0.00,,,0.00,0,weatherlink.com 1.10,2013-01-18 10:33:00,
2013-01-18 02:48:00,32.4,29.0,30.23,NNW,336,0.0,1.0,88,0.00,,,0.00,0,weatherlink.com 1.10,2013-01-18 10:48:00,
2013-01-18 03:03:00,32.2,29.0,30.23,NNW,336,0.0,1.0,89,0.00,,,0.00,0,weatherlink.com 1.10,2013-01-18 11:03:00,
2013-01-18 03:18:00,32.4,30.0,30.22,NNW,336,0.0,0.0,90,0.00,,,0.00,0,weatherlink.com 1.10,2013-01-18 11:18:00,
2013-01-18 03:33:00,32.6,30.0,30.22,NNW,336,0.0,0.0,88,0.00,,,0.00,0,weatherlink.com 1.10,2013-01-18 11:33:00,
2013-01-18 03:48:00,32.3,30.0,30.22,NNW,336,0.0,0.0,89,0.00,,,0.00,0,weatherlink.com 1.10,2013-01-18 11:48:00,
2013-01-18 04:03:00,32.3,30.0,30.22,NNW,336,0.0,0.0,89,0.00,,,0.00,0,weatherlink.com 1.10,2013-01-18 12:03:00,
2013-01-18 04:18:00,32.2,29.0,30.23,NNW,336,0.0,0.0,89,0.00,,,0.00,0,weatherlink.com 1.10,2013-01-18 12:18:00,
2013-01-18 04:33:00,32.0,29.0,30.23,NNW,336,0.0,0.0,89,0.00,,,0.00,0,weatherlink.com 1.10,2013-01-18 12:33:00,
2013-01-18 04:48:00,31.8,29.0,30.22,NNW,336,0.0,0.0,89,0.00,,,0.00,0,weatherlink.com 1.10,2013-01-18 12:48:00,
2013-01-18 05:03:00,32.0,29.0,30.22,NNW,336,0.0,1.0,89,0.00,,,0.00,0,weatherlink.com 1.10,2013-01-18 13:03:00,
2013-01-18 05:18:00,32.3,29.0,30.23,NNW,336,0.0,0.0,88,0.00,,,0.00,0,weatherlink.com 1.10,2013-01-18 13:18:00,
2013-01-18 05:33:00,31.6,29.0,30.23,NNW,336,0.0,0.0,89,0.00,,,0.00,0,weatherlink.com 1.10,2013-01-18 13:33:00,
2013-01-18 05:48:00,32.1,29.0,30.22,NNW,336,0.0,0.0,89,0.00,,,0.00,0,weatherlink.com 1.10,2013-01-18 13:48:00,
2013-01-18 06:03:00,32.7,30.0,30.22,NNW,336,0.0,0.0,88,0.00,,,0.00,0,weatherlink.com 1.10,2013-01-18 14:03:00,
2013-01-18 06:18:00,32.8,30.0,30.22,NNW,336,0.0,0.0,88,0.00,,,0.00,0,weatherlink.com 1.10,2013-01-18 14:18:00,
2013-01-18 06:33:00,32.1,29.0,30.22,NNW,336,0.0,0.0,87,0.00,,,0.00,0,weatherlink.com 1.10,2013-01-18 14:33:00,
2013-01-18 06:48:00,33.1,30.0,30.23,NNW,336,0.0,0.0,89,0.00,,,0.00,0,weatherlink.com 1.10,2013-01-18 14:48:00,
2013-01-18 07:03:00,33.5,30.0,30.23,NNW,336,0.0,0.0,88,0.00,,,0.00,0,weatherlink.com 1.10,2013-01-18 15:03:00,
2013-01-18 07:18:00,33.9,31.0,30.23,NNW,336,0.0,0.0,88,0.00,,,0.00,5,weatherlink.com 1.10,2013-01-18 15:18:00,
2013-01-18 07:33:00,34.1,31.0,30.23,NNW,336,0.0,0.0,88,0.00,,,0.00,12,weatherlink.com 1.10,2013-01-18 15:33:00,
2013-01-18 07:48:00,34.2,31.0,30.24,NNW,336,0.0,0.0,86,0.00,,,0.00,53,weatherlink.com 1.10,2013-01-18 15:48:00,
2013-01-18 08:03:00,35.2,31.0,30.24,NNW,336,0.0,1.0,85,0.00,,,0.00,93,weatherlink.com 1.10,2013-01-18 16:03:00,
2013-01-18 08:18:00,35.6,32.0,30.24,NNW,336,1.0,2.0,86,0.00,,,0.00,142,weatherlink.com 1.10,2013-01-18 16:18:00,
2013-01-18 08:33:00,36.3,33.0,30.25,NNW,336,2.0,2.0,86,0.00,,,0.00,188,weatherlink.com 1.10,2013-01-18 16:33:00,
2013-01-18 08:48:00,38.8,34.0,30.25,NNW,336,0.0,2.0,83,0.00,,,0.00,236,weatherlink.com 1.10,2013-01-18 16:48:00,
2013-01-18 09:03:00,41.0,35.0,30.26,NNW,336,1.0,2.0,78,0.00,,,0.00,295,weatherlink.com 1.10,2013-01-18 17:03:00,
2013-01-18 09:18:00,42.4,36.0,30.26,NNW,336,3.0,3.0,77,0.00,,,0.00,341,weatherlink.com 1.10,2013-01-18 17:18:00,
2013-01-18 09:33:00,45.0,37.0,30.27,NNW,336,1.0,3.0,74,0.00,,,0.00,380,weatherlink.com 1.10,2013-01-18 17:33:00,
2013-01-18 09:49:00,47.2,38.0,30.27,NNW,336,0.0,3.0,70,0.00,,,0.00,417,weatherlink.com 1.10,2013-01-18 17:49:00,
2013-01-18 10:04:00,49.4,38.0,30.27,NNW,336,0.0,2.0,65,0.00,,,0.00,445,weatherlink.com 1.10,2013-01-18 18:04:00,
2013-01-18 10:19:00,49.9,38.0,30.26,NNW,336,2.0,5.0,64,0.00,,,0.00,476,weatherlink.com 1.10,2013-01-18 18:19:00,
2013-01-18 10:34:00,50.7,37.0,30.26,NNW,333,1.0,5.0,60,0.00,,,0.00,499,weatherlink.com 1.10,2013-01-18 18:34:00,
2013-01-18 10:49:00,53.8,38.0,30.25,NNW,333,1.0,2.0,56,0.00,,,0.00,522,weatherlink.com 1.10,2013-01-18 18:49:00,
2013-01-18 11:04:00,54.4,38.0,30.24,NNE,15,3.0,6.0,54,0.00,,,0.00,536,weatherlink.com 1.10,2013-01-18 19:04:00,
2013-01-18 11:19:00,55.2,38.0,30.24,NNW,329,2.0,6.0,53,0.00,,,0.00,545,weatherlink.com 1.10,2013-01-18 19:19:00,
2013-01-18 11:34:00,56.6,38.0,30.23,NNE,25,3.0,7.0,50,0.00,,,0.00,552,weatherlink.com 1.10,2013-01-18 19:34:00,
2013-01-18 11:49:00,57.1,37.0,30.22,North,5,1.0,7.0,48,0.00,,,0.00,557,weatherlink.com 1.10,2013-01-18 19:49:00,
2013-01-18 12:04:00,58.2,37.0,30.21,NNW,340,3.0,6.0,46,0.00,,,0.00,555,weatherlink.com 1.10,2013-01-18 20:04:00,
2013-01-18 12:19:00,59.3,37.0,30.20,North,355,5.0,6.0,43,0.00,,,0.00,555,weatherlink.com 1.10,2013-01-18 20:19:00,
2013-01-18 12:34:00,60.5,35.0,30.18,NNW,333,2.0,6.0,39,0.00,,,0.00,548,weatherlink.com 1.10,2013-01-18 20:34:00,
2013-01-18 12:49:00,62.2,33.0,30.18,North,355,4.0,5.0,34,0.00,,,0.00,536,weatherlink.com 1.10,2013-01-18 20:49:00,
2013-01-18 13:04:00,62.9,32.0,30.17,NNW,335,4.0,8.0,32,0.00,,,0.00,527,weatherlink.com 1.10,2013-01-18 21:04:00,
2013-01-18 13:19:00,62.9,32.0,30.17,NW,326,4.0,9.0,31,0.00,,,0.00,512,weatherlink.com 1.10,2013-01-18 21:19:00,
2013-01-18 13:34:00,63.7,31.0,30.16,NNW,343,9.0,9.0,29,0.00,,,0.00,494,weatherlink.com 1.10,2013-01-18 21:34:00,
2013-01-18 13:49:00,63.9,30.0,30.16,WNW,298,2.0,7.0,28,0.00,,,0.00,468,weatherlink.com 1.10,2013-01-18 21:49:00,
2013-01-18 14:04:00,64.0,30.0,30.15,NW,308,2.0,6.0,28,0.00,,,0.00,438,weatherlink.com 1.10,2013-01-18 22:04:00,
2013-01-18 14:19:00,63.7,30.0,30.15,NNW,333,5.0,8.0,28,0.00,,,0.00,404,weatherlink.com 1.10,2013-01-18 22:19:00,
2013-01-18 14:35:00,63.4,30.0,30.15,NW,326,5.0,9.0,29,0.00,,,0.00,376,weatherlink.com 1.10,2013-01-18 22:35:00,
2013-01-18 14:50:00,63.6,31.0,30.14,NNW,336,2.0,9.0,29,0.00,,,0.00,336,weatherlink.com 1.10,2013-01-18 22:50:00,
2013-01-18 15:05:00,63.6,31.0,30.15,NNW,334,5.0,8.0,29,0.00,,,0.00,288,weatherlink.com 1.10,2013-01-18 23:05:00,
2013-01-18 15:20:00,63.2,30.0,30.15,NNW,332,5.0,7.0,29,0.00,,,0.00,241,weatherlink.com 1.10,2013-01-18 23:20:00,
2013-01-18 15:35:00,62.5,30.0,30.16,North,355,4.0,9.0,29,0.00,,,0.00,186,weatherlink.com 1.10,2013-01-18 23:35:00,
2013-01-18 15:50:00,61.8,30.0,30.16,NNW,348,6.0,8.0,30,0.00,,,0.00,137,weatherlink.com 1.10,2013-01-18 23:50:00,
2013-01-18 16:05:00,61.5,30.0,30.16,NNW,344,3.0,7.0,30,0.00,,,0.00,79,weatherlink.com 1.10,2013-01-19 00:05:00,
2013-01-18 16:20:00,60.8,30.0,30.16,NNE,16,3.0,7.0,31,0.00,,,0.00,35,weatherlink.com 1.10,2013-01-19 00:20:00,
2013-01-18 16:35:00,59.9,29.0,30.16,North,11,6.0,6.0,31,0.00,,,0.00,23,weatherlink.com 1.10,2013-01-19 00:35:00,
2013-01-18 16:50:00,58.9,30.0,30.16,North,5,3.0,5.0,33,0.00,,,0.00,19,weatherlink.com 1.10,2013-01-19 00:50:00,
2013-01-18 17:05:00,58.2,31.0,30.16,NNE,15,3.0,5.0,35,0.00,,,0.00,12,weatherlink.com 1.10,2013-01-19 01:05:00,
2013-01-18 17:20:00,56.6,31.0,30.16,NNE,15,0.0,2.0,38,0.00,,,0.00,0,weatherlink.com 1.10,2013-01-19 01:20:00,
2013-01-18 17:35:00,54.0,32.0,30.17,NNE,15,0.0,1.0,44,0.00,,,0.00,0,weatherlink.com 1.10,2013-01-19 01:35:00,
2013-01-18 17:50:00,52.5,30.0,30.17,NNE,15,0.0,1.0,43,0.00,,,0.00,0,weatherlink.com 1.10,2013-01-19 01:50:00,
2013-01-18 18:05:00,51.6,32.0,30.18,NNE,15,0.0,2.0,47,0.00,,,0.00,0,weatherlink.com 1.10,2013-01-19 02:05:00,
2013-01-18 18:20:00,50.1,32.0,30.18,NNE,15,0.0,0.0,51,0.00,,,0.00,0,weatherlink.com 1.10,2013-01-19 02:20:00,
2013-01-18 18:35:00,49.4,33.0,30.18,NNE,15,0.0,1.0,53,0.00,,,0.00,0,weatherlink.com 1.10,2013-01-19 02:35:00,
2013-01-18 18:50:00,47.7,32.0,30.18,NNE,15,0.0,0.0,56,0.00,,,0.00,0,weatherlink.com 1.10,2013-01-19 02:50:00,
2013-01-18 19:05:00,46.7,33.0,30.18,NNE,15,0.0,0.0,59,0.00,,,0.00,0,weatherlink.com 1.10,2013-01-19 03:05:00,
2013-01-18 19:20:00,46.3,33.0,30.18,NNE,15,0.0,0.0,60,0.00,,,0.00,0,weatherlink.com 1.10,2013-01-19 03:20:00,
2013-01-18 19:35:00,44.9,33.0,30.18,NNE,15,0.0,0.0,64,0.00,,,0.00,0,weatherlink.com 1.10,2013-01-19 03:35:00,
2013-01-18 19:50:00,44.1,33.0,30.18,NNE,15,0.0,0.0,66,0.00,,,0.00,0,weatherlink.com 1.10,2013-01-19 03:50:00,
2013-01-18 20:05:00,44.0,33.0,30.18,NNE,15,0.0,0.0,66,0.00,,,0.00,0,weatherlink.com 1.10,2013-01-19 04:05:00,
2013-01-18 20:20:00,43.2,33.0,30.18,NNE,15,0.0,0.0,67,0.00,,,0.00,0,weatherlink.com 1.10,2013-01-19 04:20:00,
2013-01-18 20:35:00,42.1,33.0,30.18,NNE,15,0.0,0.0,70,0.00,,,0.00,0,weatherlink.com 1.10,2013-01-19 04:35:00,
2013-01-18 20:50:00,41.5,33.0,30.18,NNE,15,0.0,0.0,71,0.00,,,0.00,0,weatherlink.com 1.10,2013-01-19 04:50:00,
2013-01-18 21:05:00,41.2,33.0,30.18,NNE,15,0.0,0.0,72,0.00,,,0.00,0,weatherlink.com 1.10,2013-01-19 05:05:00,
2013-01-18 21:20:00,40.6,33.0,30.18,NNE,15,0.0,0.0,73,0.00,,,0.00,0,weatherlink.com 1.10,2013-01-19 05:20:00,
2013-01-18 21:35:00,40.0,33.0,30.19,NNE,15,0.0,0.0,75,0.00,,,0.00,0,weatherlink.com 1.10,2013-01-19 05:35:00,
2013-01-18 21:50:00,39.5,33.0,30.19,NNE,15,0.0,0.0,76,0.00,,,0.00,0,weatherlink.com 1.10,2013-01-19 05:50:00,
2013-01-18 22:05:00,39.6,33.0,30.19,NNE,15,0.0,0.0,76,0.00,,,0.00,0,weatherlink.com 1.10,2013-01-19 06:05:00,
2013-01-18 22:20:00,38.8,32.0,30.19,NNE,15,0.0,0.0,77,0.00,,,0.00,0,weatherlink.com 1.10,2013-01-19 06:20:00,
2013-01-18 22:35:00,38.8,32.0,30.20,NNE,15,0.0,0.0,76,0.00,,,0.00,0,weatherlink.com 1.10,2013-01-19 06:35:00,
2013-01-18 22:50:00,38.4,32.0,30.20,NNE,15,0.0,0.0,77,0.00,,,0.00,0,weatherlink.com 1.10,2013-01-19 06:50:00,
2013-01-18 23:05:00,39.0,32.0,30.20,NNE,15,0.0,0.0,76,0.00,,,0.00,0,weatherlink.com 1.10,2013-01-19 07:05:00,
2013-01-18 23:20:00,37.7,31.0,30.20,NNE,15,0.0,0.0,77,0.00,,,0.00,0,weatherlink.com 1.10,2013-01-19 07:20:00,
2013-01-18 23:35:00,37.9,31.0,30.20,NNE,15,0.0,0.0,77,0.00,,,0.00,0,weatherlink.com 1.10,2013-01-19 07:35:00,
2013-01-18 23:50:00,37.3,31.0,30.20,NNE,15,0.0,0.0,78,0.00,,,0.00,0,weatherlink.com 1.10,2013-01-19 07:50:00,